Astoria, OR

8:57 PM PDT on July 23, 2017 (GMT -0700)
Astoria Regional

Weather History for KAST - August, 2013

Change the Weather History Date:

Monday, August 26, 2013

  Actual Average Record
Temperature  
Mean Temperature 59 °F 61 °F  
Max Temperature 66 °F 69 °F 91 °F (2016)
Min Temperature 51 °F 52 °F 42 °F (1991)
Degree Days  
Heating Degree Days 6 4  
Month to date heating degree days 101 104  
Since 1 June heating degree days 424 496  
Since 1 July heating degree days 243 254  
Cooling Degree Days 0 0  
Month to date cooling degree days 0 0  
Year to date cooling degree days 4 3  
Since 1 June cooling degree days 3 3  
Growing Degree Days 9 (Base 50)    
Moisture  
Dew Point 55 °F    
Average Humidity 82    
Maximum Humidity 100    
Minimum Humidity 63    
Precipitation  
Precipitation 0.15 in 0.05 in 1.01 in (1997)
Month to date precipitation 0.48 0.89  
Year to date precipitation 35.48 37.83  
Snow  
Snow 0.00 in - - ()
Month to date snowfall 0.0  
Since 1 June snowfall 0.0  
Snow Depth 0.00 in    
Sea Level Pressure  
Sea Level Pressure 29.91 in    
Wind  
Wind Speed 5 mph (South)    
Max Wind Speed 22 mph    
Max Gust Speed 30 mph    
Visibility 8 miles    
Events Fog , Rain    
T = Trace of Precipitation, MM = Missing Value Source: NWS Daily Summary

Daily Weather History Graph

Daily Weather History Graph

Search for Another Location

Airport or City:

Trip Planner

Search our weather history database for the weather conditions in past years. The results will help you decide how hot, cold, wet, or windy it might be!

Date:

Astronomy

Aug. 26, 2013 Rise Set
Actual Time 6:28 AM PDT 8:04 PM PDT
Civil Twilight 5:57 AM PDT 8:35 PM PDT
Nautical Twilight 5:19 AM PDT 9:14 PM PDT
Astronomical Twilight 4:37 AM PDT 9:55 PM PDT
Moon 10:55 PM PDT (8/26) 12:59 PM PDT (8/26)
Length of Visible Light 14h 38m
Length of Day
13h 35m
Waning Gibbous, 65% of the Moon is Illuminated
Aug 26
Waning Gibbous
Aug 28
Last Quarter
Sep 5
New
Sep 12
First Quarter
Sep 19
Full

Hourly Weather History & Observations

Time (PDT) Temp. Dew Point Humidity Pressure Visibility Wind Dir Wind Speed Gust Speed Precip Events Conditions
12:55 AM 55.0 °F 53.1 °F 93% 29.90 in 10.0 mi SE 3.5 mph - N/A   Partly Cloudy
1:55 AM 53.1 °F 51.1 °F 93% 29.90 in 10.0 mi SE 4.6 mph - N/A   Clear
2:55 AM 53.1 °F 51.1 °F 93% 29.90 in 10.0 mi Calm Calm - N/A   Partly Cloudy
3:36 AM 51.8 °F 50.0 °F 94% 29.91 in 10.0 mi Calm Calm - N/A   Overcast
3:48 AM 53.6 °F 51.8 °F 94% 29.91 in 10.0 mi Calm Calm - N/A   Overcast
3:55 AM 53.1 °F 52.0 °F 96% 29.91 in 10.0 mi Calm Calm - N/A   Overcast
4:35 AM 51.8 °F 50.0 °F 94% 29.90 in 10.0 mi Calm Calm - N/A   Mostly Cloudy
4:55 AM 53.1 °F 52.0 °F 96% 29.91 in 10.0 mi SW 4.6 mph - N/A   Overcast
5:02 AM 53.6 °F 51.8 °F 94% 29.90 in 10.0 mi SSW 3.5 mph - N/A   Overcast
5:55 AM 53.1 °F 52.0 °F 96% 29.90 in 9.0 mi ESE 3.5 mph - N/A   Mostly Cloudy
6:28 AM 51.8 °F 51.8 °F 100% 29.90 in 1.8 mi Calm Calm - N/A   Overcast
6:31 AM 51.8 °F 51.8 °F 100% 29.90 in 0.8 mi Calm Calm - N/A   Overcast
6:42 AM 51.8 °F 51.8 °F 100% 29.90 in 0.2 mi Calm Calm - N/A Fog Fog
6:55 AM 52.0 °F 52.0 °F 100% 29.90 in 0.2 mi Calm Calm - N/A Fog Fog
7:06 AM 51.8 °F 51.8 °F 100% 29.90 in 0.5 mi ESE 3.5 mph - N/A Fog Fog
7:16 AM 51.8 °F 51.8 °F 100% 29.90 in 1.5 mi Calm Calm - N/A   Overcast
7:20 AM 51.8 °F 51.8 °F 100% 29.90 in 3.0 mi Calm Calm - N/A   Mostly Cloudy
7:35 AM 51.8 °F 51.8 °F 100% 29.90 in 9.0 mi Calm Calm - N/A   Scattered Clouds
7:55 AM 53.1 °F 52.0 °F 96% 29.90 in 10.0 mi Calm Calm - N/A   Clear
8:35 AM 55.4 °F 53.6 °F 94% 29.89 in 10.0 mi Calm Calm - N/A   Scattered Clouds
8:45 AM 55.4 °F 53.6 °F 94% 29.89 in 10.0 mi Calm Calm - N/A   Mostly Cloudy
8:55 AM 55.9 °F 54.0 °F 93% 29.89 in 10.0 mi Calm Calm - N/A   Overcast
9:14 AM 57.2 °F 55.4 °F 94% 29.89 in 10.0 mi East 3.5 mph - N/A   Scattered Clouds
9:55 AM 61.0 °F 55.9 °F 83% 29.88 in 10.0 mi Calm Calm - N/A   Mostly Cloudy
10:55 AM 64.9 °F 55.9 °F 73% 29.88 in 10.0 mi North 3.5 mph - N/A   Overcast
11:55 AM 66.0 °F 53.1 °F 63% 29.90 in 10.0 mi WSW 13.8 mph 19.6 mph N/A   Overcast
12:55 PM 64.0 °F 51.1 °F 63% 29.90 in 10.0 mi SW 17.3 mph 24.2 mph N/A   Mostly Cloudy
1:55 PM 61.0 °F 53.1 °F 75% 29.88 in 6.0 mi SSE 12.7 mph 21.9 mph 0.02 in Rain Light Rain
2:55 PM 60.1 °F 55.0 °F 83% 29.90 in 9.0 mi South 8.1 mph - 0.03 in Rain Light Rain
3:55 PM 60.1 °F 55.9 °F 86% 29.91 in 8.0 mi South 4.6 mph - 0.05 in Rain Light Rain
4:55 PM 59.0 °F 55.9 °F 90% 29.92 in 2.5 mi South 12.7 mph 20.7 mph 0.03 in Rain Light Rain
5:01 PM 59.0 °F 55.4 °F 88% 29.92 in 1.8 mi South 10.4 mph 20.7 mph 0.01 in Rain Light Rain
5:08 PM 59.0 °F 57.2 °F 94% 29.92 in 3.0 mi South 10.4 mph - 0.02 in Rain Light Rain
5:55 PM 59.0 °F 57.0 °F 93% 29.92 in 10.0 mi South 6.9 mph - 0.02 in   Overcast
6:23 PM 59.0 °F 57.2 °F 94% 29.92 in 10.0 mi SSE 5.8 mph - 0.00 in   Overcast
6:55 PM 59.0 °F 57.9 °F 96% 29.92 in 10.0 mi South 5.8 mph - 0.00 in   Overcast
7:55 PM 60.1 °F 57.9 °F 93% 29.93 in 10.0 mi SSW 8.1 mph - N/A   Overcast
8:35 PM 60.8 °F 59.0 °F 94% 29.93 in 9.0 mi South 6.9 mph 19.6 mph 0.00 in   Overcast
8:55 PM 60.1 °F 59.0 °F 96% 29.94 in 10.0 mi South 9.2 mph - 0.00 in   Overcast
9:25 PM 60.8 °F 59.0 °F 94% 29.93 in 10.0 mi South 10.4 mph 25.3 mph N/A   Overcast
9:55 PM 60.1 °F 59.0 °F 96% 29.94 in 10.0 mi SSW 5.8 mph - N/A   Overcast
10:30 PM 60.8 °F 59.0 °F 94% 29.94 in 10.0 mi Calm Calm - N/A   Overcast
10:55 PM 60.1 °F 59.0 °F 96% 29.94 in 10.0 mi East 3.5 mph - N/A   Overcast
11:47 PM 60.8 °F 59.0 °F 94% 29.94 in 10.0 mi Calm Calm - N/A   Overcast
11:55 PM 60.1 °F 59.0 °F 96% 29.94 in 10.0 mi Calm Calm - N/A   Overcast